Wind_Speed
32 32 31 31 31 32 33 34 35 35 36 35 36 37 37 38 39 39 39 39 39 40 41 42 43 45 46 47 48 48 49 50 51 52 53 54 55 56 56 57 58 58 59 60
31 31 31 31 31 32 33 34 35 36 35 34 35 37 38 38 38 39 39 39 39 39 40 41 43 44 45 46 48 49 49 50 50 51 52 53 54 54 55 56 56 57 58 59
31 31 32 31 30 30 31 32 33 35 34 34 35 36 36 38 38 39 39 39 40 40 40 41 41 42 43 45 46 47 48 49 50 50 51 52 53 54 55 55 56 56 56 58
32 31 32 31 30 30 31 31 32 34 34 34 34 35 36 37 38 39 39 40 40 41 41 42 42 42 43 44 45 45 46 47 48 50 51 52 53 54 55 55 55 56 56 57
31 32 33 31 30 31 31 31 32 33 34 34 35 35 36 37 38 39 39 40 41 41 42 43 43 43 43 43 43 44 44 45 46 48 50 51 52 54 54 54 54 55 55 56
32 33 34 32 32 32 33 33 32 33 34 35 36 36 35 37 38 39 40 40 41 42 43 43 44 43 43 43 43 43 44 44 45 47 48 49 51 52 53 53 53 54 54 54
32 33 33 33 33 34 35 35 34 34 35 35 36 37 37 37 38 39 40 41 41 42 42 42 42 42 42 42 43 43 43 43 44 46 47 48 49 50 51 51 52 53 53 54
32 33 33 33 34 34 35 35 35 36 36 36 36 37 38 38 39 40 40 40 40 40 40 40 41 41 41 42 43 43 43 43 44 44 45 46 47 47 48 49 50 51 52 53
33 33 33 33 33 34 35 36 36 37 37 37 36 37 37 38 38 38 39 39 39 39 39 39 39 39 40 41 42 42 43 43 43 43 43 44 45 45 46 47 48 50 51 52
33 33 33 34 34 35 35 36 36 37 37 37 37 37 37 38 38 38 38 38 39 38 38 38 38 38 38 40 41 41 42 43 43 43 42 43 44 44 44 45 47 49 50 50
33 34 34 35 35 35 35 36 37 37 37 38 38 38 39 39 39 39 38 38 38 38 38 38 38 37 38 39 40 40 41 42 43 43 43 43 43 43 44 44 45 47 47 49
34 34 35 35 35 35 36 37 38 38 38 38 38 38 38 38 39 39 38 38 39 39 38 38 37 37 38 39 39 40 40 40 41 41 41 42 43 43 44 44 44 46 46 47
34 34 35 35 36 37 38 38 38 38 38 38 38 38 38 38 38 38 37 38 38 38 38 38 37 37 37 37 38 38 38 38 39 39 40 40 41 41 42 42 43 43 43 44
34 35 35 36 36 37 38 39 39 39 39 38 38 39 39 38 38 38 38 38 38 37 37 36 36 35 36 36 36 36 37 37 37 38 39 39 40 40 40 40 41 40 40 40
35 36 36 37 37 38 39 39 39 38 38 38 38 38 38 38 38 38 37 37 37 36 35 35 35 35 35 35 35 36 36 37 37 37 38 38 38 38 39 39 39 39 38 38
35 36 37 37 37 38 38 38 38 37 37 37 37 37 36 36 36 35 35 35 35 35 35 35 35 35 35 35 35 35 35 35 36 36 36 37 37 37 37 37 38 38 37 37
35 36 36 36 37 37 37 36 36 35 35 35 35 35 34 34 33 34 34 34 33 33 34 34 34 35 35 35 35 34 34 34 34 35 35 35 35 36 36 37 37 37 37 37
35 35 35 34 35 35 34 34 34 34 34 34 34 33 32 32 32 33 33 33 32 32 32 32 32 33 33 33 33 33 33 32 33 33 33 33 33 33 34 34 35 35 36 36
34 34 34 34 34 34 33 33 33 33 33 33 32 32 32 32 32 32 32 32 31 30 30 30 30 30 30 31 31 31 31 32 32 31 31 31 32 32 32 33 33 34 34 34
34 34 34 35 35 34 33 33 32 32 32 32 32 32 32 32 31 31 31 31 30 29 29 29 28 28 28 29 29 30 30 30 31 31 30 30 30 31 31 31 31 32 32 32
34 34 34 34 34 33 32 32 32 32 32 32 31 31 30 31 31 30 30 29 29 28 28 28 28 28 28 28 28 29 29 29 29 29 29 29 30 30 30 30 30 29 29 29
33 33 33 32 32 31 31 31 31 31 31 31 30 29 29 30 30 29 29 28 28 28 27 27 27 27 27 27 28 28 27 28 28 27 27 28 28 28 28 28 27 27 26 26
33 32 32 31 31 30 30 30 30 30 30 30 29 29 29 29 29 28 28 28 28 27 27 27 27 27 27 27 27 27 27 26 26 26 26 26 26 26 26 26 25 25 24 24
32 32 32 32 31 31 30 30 30 30 30 29 29 29 29 29 29 29 28 28 28 27 27 27 27 27 27 26 27 27 26 26 26 25 25 26 26 25 25 24 24 23 23 22
32 32 32 32 31 31 30 30 30 30 29 29 29 30 29 29 29 29 28 28 27 27 27 27 27 27 27 26 26 26 26 26 26 26 25 25 25 24 24 23 22 22 22 21
33 32 32 31 31 31 31 30 30 30 29 29 30 30 30 29 29 28 28 27 27 26 26 26 26 26 27 26 26 26 26 26 26 25 25 24 23 22 22 22 21 21 20 20
32 32 31 31 31 31 30 30 29 29 30 30 30 29 29 29 29 28 27 27 26 26 26 26 26 26 26 26 25 25 25 24 24 23 23 22 22 21 21 20 20 19 19 19
Wind_Direction
287 285 282 281 279 277 276 275 276 276 276 277 277 277 278 278 278 277 276 275 274 273 271 270 269 268 267 267 266 265 264 264 263 262 261 260 260 260 260 260 260 260 260 260
288 285 282 281 280 279 278 277 277 277 278 279 278 278 278 279 279 278 277 276 276 276 275 273 272 271 269 268 267 266 266 265 264 263 262 261 261 261 261 261 262 261 261 261
290 287 284 282 283 283 281 279 279 279 280 280 279 279 279 279 279 279 278 277 277 276 276 275 274 272 271 270 269 268 267 266 265 264 263 262 261 261 261 262 263 263 262 262
291 289 287 288 286 285 284 282 282 281 282 282 282 281 281 281 280 280 279 278 278 276 276 275 274 273 273 271 270 269 268 267 267 266 264 263 262 262 262 262 263 263 264 263
292 290 290 290 290 289 287 285 284 283 283 284 284 283 283 282 282 281 280 280 280 278 277 276 274 274 273 272 271 270 269 269 268 267 266 265 264 263 262 262 263 263 263 263
293 292 293 293 291 289 288 288 287 286 286 286 286 284 283 283 283 283 283 282 281 280 279 278 276 274 272 271 271 271 271 271 271 270 269 268 266 265 263 262 262 263 263 264
294 294 294 294 291 290 289 291 290 290 289 288 287 286 286 286 286 285 285 285 284 283 281 279 277 274 272 271 271 271 271 272 272 272 272 270 268 266 265 263 263 264 264 264
295 294 295 295 293 290 290 290 290 291 290 289 287 287 288 288 287 286 286 287 286 285 283 281 279 276 273 272 271 271 272 272 273 273 274 272 270 268 266 264 264 265 265 265
295 295 295 294 293 292 291 291 291 290 290 289 289 289 289 289 289 288 288 288 287 286 285 282 280 278 276 274 273 273 273 274 275 276 275 274 272 270 268 267 267 266 266 266
294 294 293 292 292 291 291 291 291 291 290 290 289 290 290 291 290 289 288 288 287 287 286 283 282 281 278 276 274 274 274 274 275 276 275 274 272 271 270 270 269 269 268 268
293 293 292 292 292 292 291 291 291 292 292 291 291 291 291 291 291 290 289 288 287 287 287 285 283 282 280 278 277 276 276 275 275 275 275 273 272 272 272 272 272 271 270 269
294 293 292 292 292 292 292 293 292 292 293 293 293 293 292 293 293 292 290 288 288 288 287 286 285 283 282 280 279 278 278 277 277 276 275 274 274 273 273 274 273 273 273 272
295 294 294 293 292 292 292 293 293 293 293 293 293 294 294 294 293 292 291 291 290 289 288 287 286 285 284 282 281 280 279 279 278 277 277 277 275 274 274 274 273 274 274 274
296 295 294 294 293 292 292 293 293 293 294 294 294 294 294 293 293 292 292 292 291 290 289 289 287 286 285 285 284 283 281 281 280 280 280 279 277 276 275 274 274 275 275 275
297 295 295 295 294 294 294 293 293 293 294 295 295 294 294 293 293 293 292 292 291 290 289 288 287 286 286 286 286 286 284 282 282 281 281 280 279 278 277 276 276 275 275 275
297 297 296 296 295 296 296 294 293 293 294 295 295 295 295 294 294 294 294 293 292 290 288 287 287 287 287 287 287 287 286 284 283 283 282 281 280 279 278 278 277 277 276 276
300 300 299 298 297 297 296 296 296 296 296 296 296 296 296 296 296 296 296 296 294 292 290 288 287 287 288 288 288 287 287 286 285 284 283 282 281 280 279 278 278 277 277 277
302 302 301 300 300 300 298 298 298 298 297 297 297 297 297 297 298 298 298 298 297 295 293 291 291 289 289 289 288 288 287 287 287 286 284 283 283 282 281 280 279 278 278 278
303 302 302 301 302 301 300 299 299 299 299 299 298 297 297 298 299 300 299 298 297 297 295 294 293 292 292 292 291 290 289 288 288 288 287 286 285 284 283 282 281 280 279 278
302 302 302 302 302 301 300 300 301 301 301 301 301 299 298 299 300 300 300 299 297 297 297 295 295 295 295 295 294 293 292 290 288 287 287 288 287 286 286 285 284 282 281 278
304 303 303 303 303 302 301 300 300 301 301 301 301 300 300 300 300 301 301 300 298 298 297 296 296 296 296 296 296 295 294 293 291 289 288 288 288 288 288 287 285 284 282 280
305 304 304 305 305 304 303 303 302 301 301 302 302 301 300 301 301 302 301 300 299 298 298 297 297 297 297 297 297 297 296 296 294 293 292 291 291 291 290 290 288 285 283 282
305 304 304 305 305 305 304 304 303 303 303 303 302 302 301 302 302 302 301 301 300 299 298 298 298 298 298 298 298 297 297 297 297 295 295 294 294 293 292 291 289 287 284 282
306 305 305 305 305 304 304 304 303 303 303 303 303 303 302 302 302 302 301 300 300 300 299 299 299 299 299 299 299 298 298 298 298 298 297 296 295 295 293 292 289 287 285 283
306 306 306 306 305 305 304 304 304 304 304 303 303 304 304 303 302 301 301 300 300 300 299 299 299 300 300 299 299 299 298 298 297 298 299 298 297 296 294 292 290 288 286 284
306 307 307 306 305 305 304 304 304 304 304 304 304 304 304 303 302 301 300 300 299 299 299 299 299 299 300 300 299 300 299 298 298 298 298 299 298 297 295 293 291 288 286 285
307 307 307 306 305 305 305 305 305 305 305 305 305 304 304 303 303 301 300 300 300 299 299 299 299 299 300 300 300 300 300 299 298 299 299 299 298 297 297 295 292 290 287 285
Height
5544 5542 5540 5539 5538 5537 5535 5533 5532 5532 5531 5530 5528 5526 5524 5523 5521 5520 5519 5518 5517 5516 5515 5514 5514 5513 5513 5512 5512 5512 5513 5513 5514 5514 5515 5517 5518 5520 5522 5523 5525 5527 5529 5531
5536 5534 5531 5530 5530 5528 5526 5524 5523 5522 5521 5520 5517 5515 5513 5512 5510 5509 5508 5506 5505 5504 5503 5501 5500 5499 5499 5498 5498 5497 5497 5498 5498 5499 5499 5500 5502 5503 5505 5507 5508 5510 5511 5513
5527 5525 5522 5522 5522 5519 5517 5515 5514 5512 5512 5509 5507 5505 5503 5501 5499 5497 5496 5494 5493 5491 5490 5488 5487 5485 5485 5484 5483 5483 5482 5482 5483 5483 5484 5484 5486 5487 5489 5490 5492 5493 5495 5496
5518 5516 5514 5517 5513 5511 5508 5507 5505 5502 5501 5499 5496 5494 5492 5490 5487 5485 5484 5482 5480 5479 5477 5475 5474 5472 5471 5470 5469 5468 5468 5468 5467 5467 5468 5468 5469 5470 5472 5473 5475 5476 5477 5478
5509 5506 5505 5506 5504 5501 5499 5498 5496 5493 5491 5488 5486 5484 5483 5479 5476 5474 5472 5470 5468 5466 5464 5462 5460 5459 5458 5456 5455 5455 5454 5453 5453 5452 5452 5452 5453 5454 5455 5457 5458 5459 5460 5461
5501 5498 5496 5498 5495 5491 5490 5488 5487 5483 5481 5478 5475 5474 5473 5469 5466 5463 5460 5458 5455 5453 5451 5449 5447 5445 5444 5443 5442 5441 5440 5439 5438 5437 5437 5437 5437 5438 5439 5440 5441 5442 5443 5444
5494 5490 5488 5489 5485 5483 5482 5480 5476 5473 5471 5468 5465 5462 5461 5458 5455 5452 5449 5446 5443 5440 5437 5435 5433 5431 5430 5429 5428 5427 5426 5425 5424 5423 5422 5421 5421 5422 5422 5423 5425 5426 5427 5428
5486 5483 5483 5479 5476 5474 5472 5469 5466 5463 5460 5457 5455 5452 5449 5446 5443 5440 5437 5434 5430 5428 5425 5422 5419 5418 5417 5416 5415 5414 5412 5411 5410 5409 5408 5407 5406 5406 5407 5407 5408 5409 5410 5411
5479 5478 5474 5470 5467 5464 5461 5459 5456 5453 5450 5447 5445 5442 5438 5435 5432 5428 5425 5422 5418 5415 5413 5410 5407 5405 5404 5403 5401 5400 5399 5398 5397 5395 5394 5393 5392 5392 5392 5392 5393 5393 5394 5394
5470 5468 5465 5462 5458 5455 5452 5449 5446 5443 5440 5437 5434 5431 5428 5424 5421 5417 5414 5410 5407 5404 5401 5398 5396 5393 5392 5390 5389 5388 5386 5385 5384 5382 5381 5380 5379 5379 5378 5378 5378 5377 5378 5378
5461 5459 5456 5453 5449 5446 5442 5439 5436 5433 5429 5426 5423 5420 5416 5413 5409 5406 5402 5399 5396 5393 5390 5387 5384 5382 5380 5378 5376 5375 5374 5372 5371 5369 5368 5367 5366 5365 5364 5364 5363 5362 5362 5362
5453 5449 5446 5443 5440 5436 5433 5429 5426 5423 5420 5416 5412 5409 5405 5402 5398 5394 5391 5388 5385 5381 5378 5376 5373 5370 5368 5366 5364 5362 5361 5359 5358 5356 5355 5354 5353 5352 5351 5350 5349 5347 5346 5346
5443 5439 5436 5432 5429 5426 5422 5419 5415 5412 5409 5405 5401 5398 5394 5391 5387 5383 5380 5377 5373 5370 5367 5364 5361 5359 5357 5354 5352 5350 5349 5347 5345 5344 5342 5341 5340 5339 5338 5337 5335 5334 5332 5331
5433 5429 5426 5423 5419 5415 5412 5408 5405 5401 5397 5394 5390 5387 5383 5379 5376 5372 5369 5365 5362 5359 5356 5353 5350 5348 5346 5343 5341 5339 5337 5335 5333 5332 5330 5328 5327 5326 5325 5324 5323 5321 5320 5318
5423 5419 5416 5412 5409 5405 5401 5398 5394 5390 5387 5383 5379 5375 5372 5368 5365 5361 5357 5354 5351 5348 5345 5342 5340 5338 5335 5332 5330 5328 5326 5324 5322 5320 5318 5316 5315 5313 5312 5311 5310 5309 5307 5306
5413 5409 5406 5402 5398 5394 5391 5387 5383 5380 5376 5372 5369 5365 5361 5357 5354 5350 5347 5343 5340 5337 5334 5332 5329 5327 5324 5322 5319 5317 5315 5312 5310 5308 5307 5305 5303 5302 5300 5299 5298 5297 5296 5294
5404 5400 5396 5392 5388 5384 5380 5376 5373 5369 5366 5362 5359 5355 5351 5347 5344 5340 5336 5333 5329 5326 5323 5321 5318 5316 5313 5311 5309 5306 5304 5302 5299 5297 5295 5294 5292 5290 5289 5288 5286 5285 5284 5282
5394 5390 5386 5382 5378 5374 5370 5367 5363 5359 5356 5352 5349 5345 5342 5338 5334 5331 5327 5323 5320 5316 5313 5310 5308 5305 5303 5300 5298 5296 5294 5292 5289 5287 5285 5283 5281 5279 5278 5276 5275 5274 5273 5271
5385 5381 5377 5373 5369 5365 5361 5357 5354 5350 5346 5343 5339 5336 5332 5329 5325 5322 5318 5314 5311 5307 5304 5301 5298 5296 5293 5290 5288 5286 5284 5282 5280 5278 5275 5273 5271 5269 5267 5266 5264 5263 5261 5260
5376 5372 5368 5364 5360 5356 5352 5349 5345 5341 5338 5334 5331 5327 5324 5320 5316 5313 5309 5305 5302 5299 5296 5293 5290 5287 5284 5282 5279 5277 5275 5272 5270 5268 5266 5264 5262 5260 5258 5256 5254 5252 5250 5249
5367 5363 5359 5355 5351 5347 5343 5340 5336 5333 5329 5325 5322 5318 5315 5311 5308 5304 5301 5297 5294 5290 5288 5285 5282 5279 5276 5273 5271 5268 5266 5263 5261 5259 5257 5255 5252 5250 5248 5246 5244 5242 5241 5239
5358 5354 5350 5346 5342 5338 5335 5331 5327 5324 5320 5317 5313 5310 5306 5303 5299 5296 5292 5289 5286 5283 5280 5277 5274 5271 5268 5265 5263 5260 5258 5255 5252 5250 5248 5246 5243 5241 5239 5237 5235 5233 5231 5230
5350 5346 5342 5338 5334 5330 5326 5322 5319 5315 5312 5308 5305 5301 5298 5294 5291 5288 5285 5281 5278 5275 5272 5269 5266 5263 5260 5258 5255 5252 5250 5247 5244 5242 5240 5237 5235 5233 5231 5228 5226 5225 5223 5222
5341 5337 5333 5329 5325 5321 5318 5314 5310 5307 5303 5300 5296 5293 5290 5286 5283 5279 5276 5273 5270 5267 5264 5261 5258 5255 5253 5250 5247 5245 5242 5239 5237 5234 5232 5229 5227 5225 5223 5221 5219 5217 5216 5215
5332 5328 5324 5320 5317 5313 5309 5305 5302 5298 5295 5291 5288 5284 5281 5278 5275 5271 5268 5265 5262 5259 5256 5253 5250 5248 5245 5242 5240 5237 5234 5232 5229 5227 5225 5222 5220 5217 5215 5213 5211 5210 5209 5208
5324 5320 5316 5312 5308 5304 5300 5297 5293 5290 5286 5283 5279 5276 5272 5269 5266 5263 5260 5257 5254 5251 5248 5245 5243 5240 5237 5235 5232 5230 5227 5224 5222 5219 5217 5215 5212 5210 5208 5206 5205 5203 5202 5201
5315 5311 5307 5303 5299 5295 5292 5288 5285 5281 5277 5274 5271 5267 5264 5260 5257 5254 5251 5248 5246 5243 5240 5238 5235 5233 5230 5227 5225 5222 5220 5217 5215 5212 5210 5208 5206 5203 5202 5200 5198 5197 5196 5195